User: anonymous   Login
Location: Oakhurst
(33.6448°N, 111.9543°W)
Time: 00:37:04
(UTC+00:00)
Language:

AIST 2D - Orbit

View from above orbital plane
View from above orbital plane
View from above satellite
View from above satellite

Ground track
Ground track

The orbit data is extracted from the following two-line orbital elements,

1 41465U 16026B   21206.50480706  .00002810  00000-0  81124-4 0  9997
2 41465  97.1027  89.3062 0009159 231.5231 249.6690 15.36450367293276
Epoch (UTC): 25 July 2021 12:06:55
Eccentricity: 0.0009159
inclination: 97.1027°
perigee height: 450 km
apogee height: 463 km
right ascension of ascending node: 89.3062°
argument of perigee: 231.5231°
revolutions per day: 15.36450367
mean anomaly at epoch: 249.6690°
orbit number at epoch: 29327

The dashed part of the orbit path shows where the satellite is in the earth's shadow,  

DLR